"Pseudo-MPEC" for Herschel = HPO2

Created Mon Oct 21 14:57:14 2013 using Find_Orb

Click here for an earlier version of this page, based on data while Herschel was still at the Earth-Sun L2 point. The current arc isn't long enough to determine an area/mass ratio, so I took the value AMR=0.014 m^2/kg from a previous solution. This leads to the next closest approach being on 2027 Oct 15 at 0.0557 AU.

With the additional astrometry, the formal positional uncertainty for the 2027 return is about a half degree. This uncertainty is itself somewhat uncertain, because effects such as Yarkovsky and YORP aren't modelled. I could easily imagine these resulting in a gentle, but consistent, acceleration or deceleration along the orbit. Still, even with all this, I'd expect that recovery in 2027 should be straightforward, should someone care to look.

Astrometry:
Herschel     $C2013 06 26.44304 16 43 44.07 -17 29 31.4          18.8 R D0484F65
Herschel     $C2013 06 26.44986 16 43 43.72 -17 29 35.7          18.6 R D0484F65
Herschel     $C2013 06 27.46237 16 46 21.52 -17 48 38.7          19.2 R D0484F65
Herschel     $C2013 06 27.47038 16 46 21.26 -17 48 42.7          18.8 R D0484F65
Herschel     {C2013 06 28.16809316 48 49.41 -18 03 24.1          20.8 R D0484695
Herschel     {C2013 06 28.22687716 48 46.82 -18 04 44.8         x20.4 R D0484695
Herschel     2C2013 07 01.44281 16 57 31.90 -18 54 47.4          20.1 R D0485E10
Herschel     2C2013 07 01.45164 16 57 31.63 -18 55 00.7          19.4 R D0485E10
Herschel     5C2013 09 10.43169 20 26 17.39 -22 22 03.2                 D0487E10
Herschel     5C2013 09 10.44015 20 26 18.18 -22 21 58.7          22.8 T D0487E10
Herschel     KC2013 09 11.93271720 30 14.78 -22 06 17.3          22.9 V      K92
Herschel     KC2013 09 11.94510720 30 16.17 -22 06 06.3          22.4 V      K92
Herschel     KC2013 09 11.95750020 30 17.67 -22 05 55.0          23.2 V      K92
Herschel     5C2013 09 24.43755 21 04 07.34 -19 40 29.8                 D0489E10
Herschel     KC2013 09 24.45710 21 04 09.40 -19 40 14.9          24.2 R      E10
Herschel     5C2013 09 24.47666 21 04 11.53 -19 39 59.6          24.2 R D0489E10

Station data: 
(695) Kitt Peak (N31.95849 W111.59467)  US/Arizona.   Observer T. Vorobjov.
    Measurers T. Vorobjov, N. Howes, E. Guido.  1.3-m f/13 Cassegrain + CCD.
(E10) Siding Spring-Faulkes Telescope South (S31.27324 E149.07028)  Australia/NSW.
      Observer R. Miles.  2.0-m f/10.0 Ritchey-Chretien + CCD.
(F65) Haleakala-Faulkes Telescope North (N20.7072 W156.2576)  US/Hawaii.
    Observers N. Howes, E. Guido.  2.0-m f/10.0 Ritchey-Chretien + CCD.
(K92) Sutherland-LCOGT B (S32.38063 E20.81004)  South Africa.   Observer T.
    Lister.  1.0-m f/8 Ritchey-Chretien + CCD.

Orbital elements:  Herschel = HPO2
   Perihelion 2013 May 22.178368 +/- 0.0212 TT;  Constraint: A=0.014
Epoch 2013 Jul  1.0 TT; AMR 0.014 +/- 0.000005 m2/kg         Find_Orb
M  36.88972 +/- 0.020
n   0.92637411 +/- 1.24e-5          Peri.  123.94395 +/- 0.020
a   1.04218569 +/- 9.28e-6          Node   117.03399 +/- 0.0009
e   0.0130823 +/- 4.44e-6           Incl.    0.19434 +/- 0.000033
P   1.06/388.60d           H 27.8   G  0.15   U  5.2
q 1.02855143 +/- 4.63e-6    Q 1.05581995 +/- 1.4e-5
15 of 16 observations 2013 June 26-Sept. 24; mean residual 0".472.

Residuals in arcseconds:
130626 F65 .359+ .402+    130701 E10 .185- .766-    130911 K92 .021+ .461+
130626 F65 .049+ .618+    130701 E10 .696- .950-    130924 E10 .193- .463+
130627 F65 .001- .092-    130910 E10 .362+ .587-    130924 E10 .532- .681+
130627 F65 .267- .201+    130910 E10 .121- .669-    130924 E10 .069+ .693+
130628 695 .730+ .618+    130911 K92 .416+ .309-
130628 695(1.67- 1.06+)   130911 K92 .236- .044+

